Location: Alexander
(41.3564°N, 81.5960°W)
Time: 08:59:12
(UTC+00:00)

COSMOS 2455 - Pass Details

Date: 24 January 2021
Orbit: 901 x 908 km, 67.1° (Epoch: 02 March)

Event Time Altitude Azimuth Distance (km) Brightness Sun altitude
Rises 23:03:25 0° 223° (SW) 3,518 7.2 -6.1°
Reaches altitude 10° 23:05:59 10° 228° (SW) 2,582 6.5 -6.5°
Maximum altitude 23:11:49 52° 304° (NW) 1,112 3.6 -7.6°
Drops below altitude 10° 23:17:42 10° 21° (NNE) 2,599 4.9 -8.6°
Sets 23:20:18 0° 26° (NNE) 3,544 5.5 -9.1°
